Location: Cudham
(51.3000°N, 0.0667°E)
Time: 06:44:28
(UTC+00:00)

KORONAS-FOTON - Visible Passes

Search period start: 17 February 2026 00:00
Search period end: 27 February 2026 00:00
Orbit: 432 x 444 km, 82.4° (Epoch: 16 February)

Date Brightness Start Highest point End Pass type
(mag) Time Alt. Az. Time Alt. Az. Time Alt. Az.
23 Feb 6.4 20:14:08 10° N 20:14:12 10° N 20:14:12 10° N visible
24 Feb 5.9 19:34:59 10° N 19:35:29 13° NNE 19:35:29 13° NNE visible
25 Feb 5.8 18:56:23 10° NNE 18:56:49 11° NE 18:56:49 11° NE visible
25 Feb 6.2 20:29:24 10° NNW 20:30:15 16° NNW 20:30:15 16° NNW visible
26 Feb 5.0 19:49:53 10° N 19:51:36 27° N 19:51:36 27° N visible
